Date,TemperatureHighF,TemperatureAvgF,TemperatureLowF,DewpointHighF,DewpointAvgF,DewpointLowF,HumidityHigh,HumidityAvg,HumidityLow,PressureMaxIn,PressureMinIn,WindSpeedMaxMPH,WindSpeedAvgMPH,GustSpeedMaxMPH,PrecipitationSumIn
2013-1-1,22.0,10.2,2.0,-99.9,-99.9,-99.9,0,0,100,0.00,40.00,0,-999,0,0.00
2013-1-2,23.0,12.8,7.0,-99.9,-99.9,-99.9,0,0,100,0.00,40.00,0,-999,0,0.00
2013-1-3,28.0,16.6,8.0,-99.9,-99.9,-99.9,0,0,100,0.00,40.00,0,-999,0,0.00
2013-1-4,33.0,20.3,14.0,-99.9,-99.9,-99.9,0,0,100,0.00,40.00,0,-999,0,0.00
2013-1-5,34.0,25.2,15.0,-99.9,-99.9,-99.9,0,0,100,0.00,40.00,0,-999,0,0.00
2013-1-6,32.0,26.2,23.0,-99.9,-99.9,-99.9,0,0,100,0.00,40.00,0,-999,0,0.00
2013-1-7,36.0,27.3,21.0,-99.9,-99.9,-99.9,0,0,100,0.00,40.00,0,-999,0,0.00
2013-1-8,31.0,26.8,24.0,-99.9,-99.9,-99.9,0,0,100,0.00,40.00,0,-999,0,0.00
2013-1-9,40.0,30.7,24.0,-99.9,-99.9,-99.9,0,0,100,0.00,40.00,0,-999,0,0.00
2013-1-10,35.0,26.8,14.0,-99.9,-99.9,-99.9,0,0,100,0.00,40.00,0,-999,0,0.01
2013-1-11,11.0,8.2,5.0,-99.9,-99.9,-99.9,0,0,100,0.00,40.00,0,-999,0,0.02
2013-1-12,10.0,3.4,-2.0,-99.9,-99.9,-99.9,0,0,100,0.00,40.00,0,-999,0,0.01
2013-1-13,3.0,-3.3,-9.0,-99.9,-99.9,-99.9,0,0,100,0.00,40.00,0,-999,0,0.00
2013-1-14,1.0,-5.1,-8.0,-99.9,-99.9,-99.9,0,0,100,0.00,40.00,0,-999,0,0.00
2013-1-15,11.0,5.5,-3.0,-99.9,-99.9,-99.9,0,0,100,0.00,40.00,0,-999,0,0.00
2013-1-16,25.0,16.3,8.0,-99.9,-99.9,-99.9,0,0,100,0.00,40.00,0,-999,0,0.00
2013-1-17,40.0,27.6,18.0,-99.9,-99.9,-99.9,0,0,100,0.00,40.00,0,-999,0,0.00
2013-1-18,40.0,29.4,22.0,-99.9,-99.9,-99.9,0,0,100,0.00,40.00,0,-999,0,0.00
2013-1-19,40.0,29.6,22.0,-99.9,-99.9,-99.9,0,0,100,0.00,40.00,0,-999,0,0.00
2013-1-20,40.0,29.9,25.0,-99.9,-99.9,-99.9,0,0,100,0.00,40.00,0,-999,0,0.00
2013-1-21,44.0,31.0,22.0,-99.9,-99.9,-99.9,0,0,100,0.00,40.00,0,-999,0,0.00
2013-1-22,49.0,38.3,29.0,-99.9,-99.9,-99.9,0,0,100,0.00,40.00,0,-999,0,0.00
2013-1-23,45.0,39.7,35.0,-99.9,-99.9,-99.9,0,0,100,0.00,40.00,0,-999,0,0.00
2013-1-24,42.0,35.5,31.0,-99.9,-99.9,-99.9,0,0,100,0.00,40.00,0,-999,0,0.01
2013-1-25,36.0,33.7,32.0,-99.9,-99.9,-99.9,0,0,100,0.00,40.00,0,-999,0,0.00
2013-1-26,36.0,32.7,30.0,-99.9,-99.9,-99.9,0,0,100,0.00,40.00,0,-999,0,0.01
2013-1-27,33.0,28.3,19.0,-99.9,-99.9,-99.9,0,0,100,0.00,40.00,0,-999,0,0.02
2013-1-28,18.0,14.0,9.0,-99.9,-99.9,-99.9,0,0,100,0.00,40.00,0,-999,0,0.01
2013-1-29,18.0,14.0,10.0,-99.9,-99.9,-99.9,0,0,100,0.00,40.00,0,-999,0,0.02
2013-1-30,27.0,22.0,16.0,-99.9,-99.9,-99.9,0,0,100,0.00,40.00,0,-999,0,0.01
2013-1-31,33.0,26.9,22.0,-99.9,-99.9,-99.9,0,0,100,0.00,40.00,0,-999,0,0.00